CHINASAT 2C (ZX 2C)

Last updated on Jan. 29, 2020, 4:37 a.m. UTC

1 41021U 15063A   20028.87898763 -.00000324  00000-0  00000-0 0  9991
2 41021   0.0375 165.8312 0001410 156.5322 225.0660  1.00269223 15632
UTC
Height (km)
Latitude
Longitude
Inclination
Orbital Period
UTC large
Height (km)
Speed (km/s)
/
Latitude / Longitude
Inclination (degrees)
Orbital Period (minutes)
Azimuth
Elevation
Range (km)
Doppler Factor
iOS Compass Heading
iOS Angle

Next 30 passes for location: Hong Kong

Rise time Rise Azimuth (degrees) Set time Set Azimuth (degrees) Duration Max altitude (degrees)

No matching passes for this satellites